Home   Weather   Nouadhibou   Past weeks

Flag for Mauritania Past Weather in Nouadhibou, Mauritania — Yesterday and Last 2 Weeks

Now
75 °F

Clear.


Feels Like: 77 °F
Forecast: N/A
Wind: 14 mph from Northwest

Location: Nouadhibou Airport

Current Time: Sep 28, 2016 at 5:19:48 PM

Latest Report: Sep 28, 2016 at 5:00 PM


Visibility: 4 mi

Pressure: 29.86 "Hg

Humidity: 69%

Dew Point: 64 °F

Location of NouadhibouLocation

Past Weather in Nouadhibou — Graph

°F

Nouadhibou Temperature Yesterday

Maximum temperature yesterday: 81 °F (at 1:00 PM)
Minimum temperature yesterday: 70 °F (at 12:00 AM)
Average temperature yesterday: 74 °F

High & Low Weather Summary for the Past Weeks

 TemperatureHumidityPressure
High93 °F (Sep 18, 2:00 PM)88% (Sep 14, 2:00 AM)30.04 "Hg (Sep 14, 2:00 AM)
Low68 °F (Sep 14, 5:00 AM)34% (Sep 23, 1:00 PM)29.83 "Hg (Sep 26, 3:00 PM)
Average77 °F67%29.92 "Hg
* Reported Sep 13 4:00 PM — Sep 28 4:00 PM, Nouadhibou, Weather by CustomWeather, © 2016

Note: Actual official high and low records may vary slightly from our data, if they occured in-between our weather recording intervals... More about our weather records

Advertising

Nouadhibou Weather History for the Previous 24 Hours

Scroll right to see more
 ConditionsComfort  
Time TempWeatherWind HumidityBarometerVisibility
4:00 PM
Wed, Sep 28
77 °FClear.14 mph65%29.86 "Hg4 mi
3:00 PM77 °FClear.14 mph69%29.86 "Hg4 mi
2:00 PM81 °FClear.12 mph62%29.89 "Hg4 mi
1:00 PM84 °FClear.8 mph55%29.89 "Hg4 mi
12:00 PM88 °FClear.2 mph49%29.92 "Hg4 mi
11:00 AM81 °FClear.7 mph62%29.92 "Hg4 mi
10:00 AM77 °FClear.9 mph74%29.92 "Hg4 mi
9:00 AM73 °FClear.12 mph78%29.92 "Hg4 mi
8:00 AM70 °FClear.14 mph83%29.86 "Hg4 mi
7:00 AM68 °FClear.9 mph83%29.86 "Hg4 mi
6:00 AM70 °FClear.9 mph83%29.86 "Hg4 mi
5:00 AM70 °FClear.5 mph83%29.86 "Hg4 mi
4:00 AM70 °FClear.7 mph78%29.86 "Hg4 mi
3:00 AM70 °FClear.7 mph83%29.86 "Hg4 mi
2:00 AM70 °FClear.7 mph78%29.86 "Hg4 mi
1:00 AM70 °FClear.13 mph83%29.89 "Hg4 mi
12:00 AM72 °FClear.13 mph78%29.89 "Hg4 mi
11:00 PM
Tue, Sep 27
72 °FClear.14 mph78%29.89 "Hg4 mi
10:00 PM73 °FClear.12 mph74%29.92 "Hg4 mi
9:00 PM73 °FClear.14 mph74%29.89 "Hg4 mi
8:00 PM72 °FClear.12 mph78%29.86 "Hg4 mi
7:00 PM72 °FClear.12 mph78%29.86 "Hg4 mi
6:00 PM77 °FClear.9 mph65%29.83 "Hg4 mi
5:00 PM81 °FSunny.10 mph58%29.83 "Hg4 mi
Weather by CustomWeather, © 2016

See weather overviewHow to use our weather pages